| time (UTC) | temp C | wind direction | speed KPH | gust KPH | rain 1hr cm | rain 24hr cm | rain mn cm | humidity % | barometer mb |
| 20260510071608 | 21 | 84 | 0.0 | 0.0 | 0.00 | 0.00 | 0.00 | 78 | 1008.9 |
| 20260510071106 | 21 | 121 | 0.0 | 0.0 | 0.00 | 0.00 | 0.00 | 78 | 1008.9 |
| 20260510070603 | 21 | 128 | 0.0 | 0.0 | 0.00 | 0.00 | 0.00 | 77 | 1008.9 |
| 20260510065556 | 22 | 122 | 0.0 | 0.0 | 0.00 | 0.00 | 0.00 | 76 | 1008.6 |
| 20260510065052 | 22 | 104 | 0.0 | 0.0 | 0.00 | 0.00 | 0.00 | 75 | 1008.7 |
| 20260510064549 | 22 | 98 | 0.0 | 0.0 | 0.00 | 0.00 | 0.00 | 74 | 1008.4 |
| 20260510064045 | 22 | 107 | 0.0 | 0.0 | 0.00 | 0.00 | 0.00 | 74 | 1008.4 |
| 20260510063543 | 22 | 127 | 0.0 | 0.0 | 0.00 | 0.00 | 0.00 | 73 | 1008.5 |
| 20260510063040 | 22 | 118 | 0.0 | 0.0 | 0.00 | 0.00 | 0.00 | 73 | 1008.6 |
| 20260510062535 | 23 | 157 | 0.0 | 0.0 | 0.00 | 0.00 | 0.00 | 72 | 1008.5 |
| 20260510062031 | 23 | 151 | 0.0 | 0.0 | 0.00 | 0.00 | 0.00 | 71 | 1008.4 |
| 20260510061527 | 23 | 149 | 0.0 | 0.0 | 0.00 | 0.00 | 0.00 | 70 | 1008.5 |
| 20260510061024 | 23 | 150 | 0.0 | 0.0 | 0.00 | 0.00 | 0.00 | 70 | 1008.5 |
| 20260510060521 | 23 | 169 | 0.0 | 1.6 | 0.00 | 0.00 | 0.00 | 69 | 1008.1 |
| 20260510060017 | 23 | 135 | 0.0 | 0.0 | 0.00 | 0.00 | 0.00 | 69 | 1008.1 |
| 20260510055513 | 23 | 150 | 0.0 | 0.0 | 0.00 | 0.00 | 0.00 | 69 | 1008.1 |
| 20260510055011 | 22 | 143 | 0.0 | 0.0 | 0.00 | 0.00 | 0.00 | 69 | 1008.1 |
| 20260510054507 | 22 | 152 | 0.0 | 0.0 | 0.00 | 0.00 | 0.00 | 69 | 1008.1 |
| 20260510054002 | 22 | 142 | 0.0 | 0.0 | 0.00 | 0.00 | 0.00 | 69 | 1008.1 |
| 20260510053457 | 22 | 144 | 0.0 | 0.0 | 0.00 | 0.00 | 0.00 | 69 | 1008.0 |
| 20260510052953 | 23 | 150 | 0.0 | 0.0 | 0.00 | 0.00 | 0.00 | 68 | 1008.0 |
| 20260510052450 | 23 | 160 | 0.0 | 0.0 | 0.00 | 0.00 | 0.00 | 68 | 1008.1 |
| 20260510051946 | 23 | 157 | 0.0 | 1.6 | 0.00 | 0.00 | 0.00 | 67 | 1007.9 |
| 20260510051442 | 23 | 170 | 0.0 | 1.6 | 0.00 | 0.00 | 0.00 | 66 | 1008.0 |
| 20260510050938 | 23 | 147 | 0.0 | 0.0 | 0.00 | 0.00 | 0.00 | 67 | 1007.8 |
| 20260510050435 | 23 | 176 | 4.8 | 11.3 | 0.00 | 0.00 | 0.00 | 66 | 1008.0 |
| 20260510045933 | 23 | 151 | 3.2 | 8.0 | 0.00 | 0.00 | 0.00 | 67 | 1007.9 |
| 20260510045430 | 23 | 147 | 4.8 | 9.7 | 0.00 | 0.00 | 0.00 | 67 | 1007.7 |
| 20260510044927 | 23 | 145 | 0.0 | 0.0 | 0.00 | 0.00 | 0.00 | 68 | 1007.8 |
| 20260510044423 | 23 | 150 | 1.6 | 4.8 | 0.00 | 0.00 | 0.00 | 68 | 1007.8 |
| 20260510043920 | 23 | 167 | 0.0 | 0.0 | 0.00 | 0.00 | 0.00 | 68 | 1007.8 |
| 20260510043416 | 23 | 166 | 0.0 | 0.0 | 0.00 | 0.00 | 0.00 | 68 | 1007.8 |
| 20260510042914 | 23 | 158 | 0.0 | 0.0 | 0.00 | 0.00 | 0.00 | 68 | 1007.9 |
| 20260510042410 | 23 | 155 | 0.0 | 0.0 | 0.00 | 0.00 | 0.00 | 68 | 1007.8 |
| 20260510041906 | 23 | 150 | 0.0 | 0.0 | 0.00 | 0.00 | 0.00 | 68 | 1007.4 |
| 20260510041403 | 23 | 176 | 0.0 | 0.0 | 0.00 | 0.00 | 0.00 | 68 | 1007.9 |
| 20260510040901 | 23 | 178 | 4.8 | 4.8 | 0.00 | 0.00 | 0.00 | 68 | 1007.6 |
| 20260510040358 | 23 | 154 | 0.0 | 3.2 | 0.00 | 0.00 | 0.00 | 68 | 1007.6 |
| 20260510035853 | 23 | 169 | 8.0 | 9.7 | 0.00 | 0.00 | 0.00 | 69 | 1007.8 |
| 20260510035349 | 23 | 171 | 0.0 | 0.0 | 0.00 | 0.00 | 0.00 | 69 | 1007.8 |
| 20260510034844 | 23 | 136 | 0.0 | 0.0 | 0.00 | 0.00 | 0.00 | 69 | 1007.7 |
| 20260510034343 | 23 | 161 | 0.0 | 0.0 | 0.00 | 0.00 | 0.00 | 69 | 1007.9 |
| 20260510033839 | 24 | 161 | 3.2 | 8.0 | 0.00 | 0.00 | 0.00 | 68 | 1007.7 |
| 20260510033336 | 24 | 137 | 0.0 | 1.6 | 0.00 | 0.00 | 0.00 | 68 | 1007.8 |
| 20260510032832 | 23 | 168 | 0.0 | 0.0 | 0.00 | 0.00 | 0.00 | 69 | 1007.8 |
| 20260510032329 | 23 | 161 | 0.0 | 1.6 | 0.00 | 0.00 | 0.00 | 69 | 1007.9 |
| 20260510031825 | 23 | 158 | 1.6 | 4.8 | 0.00 | 0.00 | 0.00 | 69 | 1007.7 |
| 20260510031321 | 24 | 169 | 3.2 | 8.0 | 0.00 | 0.00 | 0.00 | 68 | 1007.8 |
| 20260510030821 | 24 | 152 | 0.0 | 0.0 | 0.00 | 0.00 | 0.00 | 67 | 1007.8 |
| 20260510030317 | 24 | 172 | 0.0 | 3.2 | 0.00 | 0.00 | 0.00 | 67 | 1007.7 |
| 20260510025815 | 24 | 148 | 0.0 | 0.0 | 0.00 | 0.00 | 0.00 | 68 | 1007.8 |
| 20260510025312 | 24 | 162 | 0.0 | 0.0 | 0.00 | 0.00 | 0.00 | 68 | 1008.0 |
| 20260510024809 | 24 | 163 | 0.0 | 0.0 | 0.00 | 0.00 | 0.00 | 68 | 1007.8 |
| 20260510024306 | 24 | 142 | 0.0 | 0.0 | 0.00 | 0.00 | 0.00 | 67 | 1007.8 |
| 20260510023802 | 24 | 146 | 8.0 | 11.3 | 0.00 | 0.00 | 0.00 | 67 | 1007.6 |
| 20260510023258 | 25 | 151 | 9.7 | 12.9 | 0.00 | 0.00 | 0.00 | 66 | 1007.7 |
| 20260510022756 | 25 | 153 | 8.0 | 8.0 | 0.00 | 0.00 | 0.00 | 65 | 1007.6 |
| 20260510022255 | 25 | 158 | 4.8 | 9.7 | 0.00 | 0.00 | 0.00 | 65 | 1007.6 |
| 20260510021754 | 25 | 139 | 6.4 | 8.0 | 0.00 | 0.00 | 0.00 | 65 | 1007.7 |
| 20260510021253 | 25 | 174 | 6.4 | 8.0 | 0.00 | 0.00 | 0.00 | 64 | 1007.6 |
| 20260510020749 | 25 | 166 | 6.4 | 8.0 | 0.00 | 0.00 | 0.00 | 64 | 1007.7 |
| 20260510020248 | 25 | 158 | 0.0 | 0.0 | 0.00 | 0.00 | 0.00 | 64 | 1007.5 |
| 20260510015745 | 25 | 148 | 0.0 | 1.6 | 0.00 | 0.00 | 0.00 | 64 | 1007.5 |
| 20260510015241 | 25 | 141 | 4.8 | 4.8 | 0.00 | 0.00 | 0.00 | 64 | 1007.4 |
| 20260510014736 | 25 | 159 | 3.2 | 4.8 | 0.00 | 0.00 | 0.00 | 64 | 1007.1 |
| 20260510014234 | 26 | 168 | 4.8 | 8.0 | 0.00 | 0.00 | 0.00 | 63 | 1006.9 |
| 20260510013729 | 26 | 152 | 4.8 | 4.8 | 0.00 | 0.00 | 0.00 | 63 | 1007.1 |
| 20260510013225 | 26 | 130 | 0.0 | 0.0 | 0.00 | 0.00 | 0.00 | 65 | 1007.1 |
| 20260510012725 | 26 | 158 | 3.2 | 3.2 | 0.00 | 0.00 | 0.00 | 63 | 1007.1 |
| 20260510012220 | 26 | 140 | 1.6 | 1.6 | 0.00 | 0.00 | 0.00 | 63 | 1007.0 |
| 20260510011715 | 26 | 157 | 4.8 | 4.8 | 0.00 | 0.00 | 0.00 | 62 | 1006.9 |
| 20260510011211 | 27 | 143 | 3.2 | 3.2 | 0.00 | 0.00 | 0.00 | 60 | 1006.8 |
| 20260510010707 | 27 | 138 | 1.6 | 3.2 | 0.00 | 0.00 | 0.00 | 59 | 1006.7 |
| 20260510010204 | 28 | 146 | 1.6 | 1.6 | 0.00 | 0.00 | 0.00 | 58 | 1006.7 |
| 20260510005701 | 28 | 150 | 3.2 | 3.2 | 0.00 | 0.00 | 0.00 | 57 | 1006.9 |
| 20260510005157 | 28 | 150 | 3.2 | 3.2 | 0.00 | 0.00 | 0.00 | 56 | 1006.8 |
| 20260510004655 | 29 | 149 | 3.2 | 3.2 | 0.00 | 0.00 | 0.00 | 54 | 1006.5 |
| 20260510004153 | 30 | 148 | 4.8 | 4.8 | 0.00 | 0.00 | 0.00 | 53 | 1006.6 |
| 20260510003650 | 30 | 148 | 4.8 | 4.8 | 0.00 | 0.00 | 0.00 | 52 | 1006.8 |
| 20260510003146 | 30 | 122 | 1.6 | 1.6 | 0.00 | 0.00 | 0.00 | 52 | 1006.6 |
| 20260510002646 | 30 | 149 | 4.8 | 4.8 | 0.00 | 0.00 | 0.00 | 51 | 1006.7 |
| 20260510002143 | 31 | 148 | 1.6 | 3.2 | 0.00 | 0.00 | 0.00 | 51 | 1006.5 |
| 20260510001640 | 31 | 141 | 4.8 | 4.8 | 0.00 | 0.00 | 0.00 | 50 | 1006.7 |
| 20260510001139 | 31 | 134 | 4.8 | 4.8 | 0.00 | 0.00 | 0.00 | 49 | 1006.6 |
| 20260510000638 | 31 | 140 | 4.8 | 4.8 | 0.00 | 0.00 | 0.00 | 50 | 1006.7 |
| 20260510000136 | 31 | 130 | 8.0 | 9.7 | 0.00 | 0.00 | 0.00 | 47 | 1006.7 |
| 20260509235632 | 31 | 125 | 3.2 | 3.2 | 0.00 | 0.00 | 0.00 | 48 | 1006.6 |
| 20260509235129 | 31 | 134 | 3.2 | 3.2 | 0.00 | 0.00 | 0.00 | 47 | 1006.9 |
| 20260509234625 | 31 | 133 | 4.8 | 8.0 | 0.00 | 0.00 | 0.00 | 47 | 1006.6 |
| 20260509234123 | 31 | 169 | 4.8 | 4.8 | 0.00 | 0.00 | 0.00 | 46 | 1006.6 |
| 20260509233620 | 32 | 153 | 11.3 | 12.9 | 0.00 | 0.00 | 0.00 | 48 | 1007.0 |
| 20260509233117 | 31 | 159 | 3.2 | 3.2 | 0.00 | 0.00 | 0.00 | 47 | 1006.8 |
| 20260509232613 | 32 | 154 | 6.4 | 9.7 | 0.00 | 0.00 | 0.00 | 46 | 1006.8 |
| 20260509232111 | 32 | 172 | 4.8 | 4.8 | 0.00 | 0.00 | 0.00 | 47 | 1006.9 |
| 20260509231607 | 32 | 123 | 9.7 | 11.3 | 0.00 | 0.00 | 0.00 | 45 | 1006.7 |
| 20260509231105 | 32 | 184 | 9.7 | 11.3 | 0.00 | 0.00 | 0.00 | 45 | 1006.9 |
| 20260509230601 | 32 | 160 | 4.8 | 4.8 | 0.00 | 0.00 | 0.00 | 47 | 1007.1 |
| 20260509230059 | 32 | 143 | 4.8 | 8.0 | 0.00 | 0.00 | 0.00 | 47 | 1007.1 |
| 20260509225554 | 32 | 163 | 8.0 | 11.3 | 0.00 | 0.00 | 0.00 | 46 | 1007.3 |
| 20260509225050 | 32 | 127 | 0.0 | 0.0 | 0.00 | 0.00 | 0.00 | 45 | 1007.1 |
| 20260509224546 | 33 | 156 | 3.2 | 4.8 | 0.00 | 0.00 | 0.00 | 44 | 1007.3 |
| 20260509224042 | 32 | 133 | 8.0 | 11.3 | 0.00 | 0.00 | 0.00 | 45 | 1007.2 |
| 20260509223539 | 32 | 158 | 6.4 | 8.0 | 0.00 | 0.00 | 0.00 | 47 | 1007.1 |
| 20260509223037 | 33 | 167 | 11.3 | 14.5 | 0.00 | 0.00 | 0.00 | 45 | 1007.0 |
| 20260509222533 | 33 | 165 | 4.8 | 8.0 | 0.00 | 0.00 | 0.00 | 44 | 1007.2 |
| 20260509222029 | 33 | 148 | 6.4 | 8.0 | 0.00 | 0.00 | 0.00 | 47 | 1007.3 |
| 20260509221525 | 33 | 161 | 1.6 | 3.2 | 0.00 | 0.00 | 0.00 | 46 | 1007.0 |
| 20260509221021 | 33 | 125 | 0.0 | 0.0 | 0.00 | 0.00 | 0.00 | 46 | 1007.2 |
| 20260509220517 | 33 | 145 | 0.0 | 0.0 | 0.00 | 0.00 | 0.00 | 44 | 1007.3 |
| 20260509220014 | 32 | 165 | 3.2 | 4.8 | 0.00 | 0.00 | 0.00 | 47 | 1007.3 |
| 20260509215509 | 33 | 157 | 9.7 | 12.9 | 0.00 | 0.00 | 0.00 | 46 | 1007.4 |
| 20260509215007 | 33 | 113 | 4.8 | 4.8 | 0.00 | 0.00 | 0.00 | 44 | 1007.6 |
| 20260509214504 | 33 | 156 | 4.8 | 8.0 | 0.00 | 0.00 | 0.00 | 45 | 1007.4 |
| 20260509214000 | 32 | 115 | 3.2 | 3.2 | 0.00 | 0.00 | 0.00 | 47 | 1007.5 |
| 20260509213456 | 32 | 195 | 3.2 | 4.8 | 0.00 | 0.00 | 0.00 | 46 | 1007.5 |
| 20260509212954 | 32 | 150 | 3.2 | 3.2 | 0.00 | 0.00 | 0.00 | 46 | 1007.6 |
| 20260509212451 | 32 | 46 | 1.6 | 1.6 | 0.00 | 0.00 | 0.00 | 48 | 1007.6 |
| 20260509211947 | 30 | 28 | 6.4 | 9.7 | 0.00 | 0.00 | 0.00 | 48 | 1007.7 |
| 20260509211443 | 31 | 282 | 9.7 | 11.3 | 0.00 | 0.00 | 0.00 | 49 | 1007.6 |
| 20260509210940 | 31 | 53 | 1.6 | 1.6 | 0.00 | 0.00 | 0.00 | 49 | 1007.8 |
| 20260509210437 | 31 | 293 | 6.4 | 8.0 | 0.00 | 0.00 | 0.00 | 49 | 1007.9 |
| 20260509205932 | 31 | 301 | 4.8 | 4.8 | 0.00 | 0.00 | 0.00 | 47 | 1008.0 |
| 20260509205427 | 31 | 55 | 4.8 | 8.0 | 0.00 | 0.00 | 0.00 | 47 | 1007.8 |
| 20260509204923 | 30 | 358 | 4.8 | 4.8 | 0.00 | 0.00 | 0.00 | 51 | 1008.3 |
| 20260509204419 | 30 | 326 | 4.8 | 8.0 | 0.00 | 0.00 | 0.00 | 48 | 1008.3 |
| 20260509203916 | 30 | 327 | 6.4 | 8.0 | 0.00 | 0.00 | 0.00 | 49 | 1008.4 |
| 20260509203412 | 30 | 288 | 4.8 | 9.7 | 0.00 | 0.00 | 0.00 | 49 | 1008.3 |
| 20260509202910 | 30 | 305 | 6.4 | 8.0 | 0.00 | 0.00 | 0.00 | 49 | 1008.7 |
| 20260509202405 | 30 | 304 | 8.0 | 11.3 | 0.00 | 0.00 | 0.00 | 50 | 1008.4 |
| 20260509201901 | 30 | 315 | 9.7 | 11.3 | 0.00 | 0.00 | 0.00 | 48 | 1008.4 |
| 20260509201356 | 30 | 235 | 6.4 | 9.7 | 0.00 | 0.00 | 0.00 | 50 | 1008.7 |
| 20260509200854 | 30 | 295 | 9.7 | 11.3 | 0.00 | 0.00 | 0.00 | 51 | 1008.6 |
| 20260509200348 | 30 | 284 | 3.2 | 3.2 | 0.00 | 0.00 | 0.00 | 50 | 1008.9 |
| 20260509195845 | 30 | 218 | 6.4 | 9.7 | 0.00 | 0.00 | 0.00 | 51 | 1008.9 |
| 20260509195345 | 30 | 225 | 4.8 | 4.8 | 0.00 | 0.00 | 0.00 | 51 | 1008.8 |
| 20260509194845 | 30 | 228 | 6.4 | 9.7 | 0.00 | 0.00 | 0.00 | 51 | 1009.0 |
| 20260509194341 | 30 | 218 | 6.4 | 9.7 | 0.00 | 0.00 | 0.00 | 51 | 1009.0 |
| 20260509193838 | 28 | 263 | 4.8 | 4.8 | 0.00 | 0.00 | 0.00 | 52 | 1009.2 |
| 20260509193338 | 30 | 326 | 8.0 | 9.7 | 0.00 | 0.00 | 0.00 | 54 | 1009.1 |
| 20260509192834 | 28 | 237 | 4.8 | 4.8 | 0.00 | 0.00 | 0.00 | 56 | 1009.2 |
| 20260509192330 | 28 | 213 | 3.2 | 4.8 | 0.00 | 0.00 | 0.00 | 56 | 1009.3 |
| 20260509191826 | 28 | 315 | 6.4 | 8.0 | 0.00 | 0.00 | 0.00 | 54 | 1009.3 |
| 20260509191322 | 30 | 288 | 1.6 | 3.2 | 0.00 | 0.00 | 0.00 | 52 | 1009.4 |
| 20260509190818 | 30 | 164 | 3.2 | 3.2 | 0.00 | 0.00 | 0.00 | 52 | 1009.4 |
| 20260509190315 | 30 | 266 | 3.2 | 4.8 | 0.00 | 0.00 | 0.00 | 55 | 1009.5 |
| 20260509185812 | 30 | 187 | 1.6 | 1.6 | 0.00 | 0.00 | 0.00 | 52 | 1009.4 |
| 20260509185308 | 30 | 152 | 1.6 | 1.6 | 0.00 | 0.00 | 0.00 | 52 | 1009.6 |
| 20260509184806 | 30 | 43 | 1.6 | 1.6 | 0.00 | 0.00 | 0.00 | 53 | 1009.5 |
| 20260509184303 | 28 | 37 | 1.6 | 3.2 | 0.00 | 0.00 | 0.00 | 54 | 1009.6 |
| 20260509183800 | 28 | 187 | 0.0 | 1.6 | 0.00 | 0.00 | 0.00 | 55 | 1009.8 |
| 20260509183255 | 28 | 288 | 3.2 | 4.8 | 0.00 | 0.00 | 0.00 | 58 | 1009.6 |
| 20260509182750 | 28 | 281 | 4.8 | 4.8 | 0.00 | 0.00 | 0.00 | 58 | 1010.0 |
| 20260509182248 | 28 | 316 | 4.8 | 4.8 | 0.00 | 0.00 | 0.00 | 56 | 1010.1 |
| 20260509181745 | 28 | 210 | 1.6 | 3.2 | 0.00 | 0.00 | 0.00 | 52 | 1009.9 |
| 20260509181243 | 28 | 339 | 1.6 | 1.6 | 0.00 | 0.00 | 0.00 | 51 | 1010.0 |
| 20260509180740 | 28 | 219 | 4.8 | 4.8 | 0.00 | 0.00 | 0.00 | 52 | 1010.2 |
| 20260509180236 | 28 | 328 | 3.2 | 4.8 | 0.00 | 0.00 | 0.00 | 54 | 1010.1 |
| 20260509175732 | 27 | 326 | 0.0 | 0.0 | 0.00 | 0.00 | 0.00 | 59 | 1010.1 |
| 20260509175229 | 27 | 64 | 3.2 | 3.2 | 0.00 | 0.00 | 0.00 | 59 | 1010.3 |
| 20260509174725 | 27 | 217 | 6.4 | 9.7 | 0.00 | 0.00 | 0.00 | 63 | 1010.4 |
| 20260509174220 | 26 | 221 | 3.2 | 4.8 | 0.00 | 0.00 | 0.00 | 65 | 1010.4 |
| 20260509173717 | 26 | 296 | 4.8 | 8.0 | 0.00 | 0.00 | 0.00 | 65 | 1010.6 |
| 20260509173212 | 26 | 215 | 6.4 | 8.0 | 0.00 | 0.00 | 0.00 | 65 | 1010.4 |
| 20260509172709 | 27 | 226 | 4.8 | 4.8 | 0.00 | 0.00 | 0.00 | 65 | 1010.7 |
| 20260509172205 | 27 | 185 | 3.2 | 3.2 | 0.00 | 0.00 | 0.00 | 65 | 1010.6 |
| 20260509171701 | 27 | 150 | 1.6 | 3.2 | 0.00 | 0.00 | 0.00 | 63 | 1010.7 |
| 20260509171157 | 26 | 76 | 3.2 | 3.2 | 0.00 | 0.00 | 0.00 | 64 | 1010.8 |
| 20260509170654 | 26 | 16 | 3.2 | 3.2 | 0.00 | 0.00 | 0.00 | 67 | 1010.8 |
| 20260509170150 | 26 | 285 | 6.4 | 8.0 | 0.00 | 0.00 | 0.00 | 66 | 1011.0 |
| 20260509165648 | 26 | 218 | 4.8 | 4.8 | 0.00 | 0.00 | 0.00 | 67 | 1011.0 |
| 20260509165144 | 26 | 195 | 1.6 | 1.6 | 0.00 | 0.00 | 0.00 | 67 | 1010.8 |
| 20260509164640 | 26 | 193 | 1.6 | 3.2 | 0.00 | 0.00 | 0.00 | 67 | 1010.9 |
| 20260509164136 | 25 | 84 | 0.0 | 0.0 | 0.00 | 0.00 | 0.00 | 67 | 1011.0 |
| 20260509163634 | 25 | 202 | 3.2 | 4.8 | 0.00 | 0.00 | 0.00 | 69 | 1011.2 |
| 20260509163129 | 25 | 44 | 1.6 | 1.6 | 0.00 | 0.00 | 0.00 | 68 | 1011.1 |
| 20260509162627 | 25 | 310 | 4.8 | 4.8 | 0.00 | 0.00 | 0.00 | 70 | 1011.1 |
| 20260509162123 | 25 | 214 | 3.2 | 4.8 | 0.00 | 0.00 | 0.00 | 69 | 1011.0 |
| 20260509161619 | 25 | 263 | 1.6 | 3.2 | 0.00 | 0.00 | 0.00 | 70 | 1011.0 |
| 20260509161114 | 24 | 208 | 4.8 | 4.8 | 0.00 | 0.00 | 0.00 | 70 | 1011.1 |
| 20260509160611 | 24 | 226 | 3.2 | 3.2 | 0.00 | 0.00 | 0.00 | 69 | 1011.1 |
| 20260509160106 | 25 | 257 | 4.8 | 4.8 | 0.00 | 0.00 | 0.00 | 69 | 1011.3 |
| 20260509155602 | 24 | 38 | 1.6 | 3.2 | 0.00 | 0.00 | 0.00 | 69 | 1011.1 |
| 20260509155058 | 23 | 155 | 1.6 | 3.2 | 0.00 | 0.00 | 0.00 | 70 | 1011.0 |
| 20260509154554 | 24 | 75 | 3.2 | 4.8 | 0.00 | 0.00 | 0.00 | 67 | 1011.0 |
| 20260509154052 | 23 | 315 | 1.6 | 1.6 | 0.00 | 0.00 | 0.00 | 72 | 1011.1 |
| 20260509153549 | 22 | 339 | 4.8 | 4.8 | 0.00 | 0.00 | 0.00 | 72 | 1011.1 |
| 20260509153040 | 22 | 179 | 0.0 | 0.0 | 0.00 | 0.00 | 0.00 | 73 | 1011.4 |
| 20260509152536 | 22 | 85 | 0.0 | 0.0 | 0.00 | 0.00 | 0.00 | 73 | 1011.1 |
| 20260509152034 | 22 | 316 | 4.8 | 4.8 | 0.00 | 0.00 | 0.00 | 74 | 1011.1 |
| 20260509151529 | 22 | 160 | 1.6 | 3.2 | 0.00 | 0.00 | 0.00 | 73 | 1011.4 |
| 20260509151027 | 22 | 221 | 3.2 | 3.2 | 0.00 | 0.00 | 0.00 | 74 | 1011.1 |
| 20260509150524 | 22 | 302 | 3.2 | 3.2 | 0.00 | 0.00 | 0.00 | 74 | 1011.0 |
| 20260509150023 | 21 | 57 | 0.0 | 1.6 | 0.00 | 0.00 | 0.00 | 75 | 1011.2 |
| 20260509145518 | 21 | 57 | 0.0 | 0.0 | 0.00 | 0.00 | 0.00 | 76 | 1010.9 |
| 20260509145013 | 21 | 60 | 1.6 | 1.6 | 0.00 | 0.00 | 0.00 | 76 | 1011.0 |
| 20260509144511 | 21 | 348 | 1.6 | 1.6 | 0.00 | 0.00 | 0.00 | 77 | 1011.2 |
| 20260509144008 | 21 | 66 | 1.6 | 3.2 | 0.00 | 0.00 | 0.00 | 77 | 1011.2 |
| 20260509143505 | 21 | 59 | 1.6 | 1.6 | 0.00 | 0.00 | 0.00 | 76 | 1011.2 |
| 20260509143003 | 21 | 23 | 3.2 | 3.2 | 0.00 | 0.00 | 0.00 | 77 | 1011.1 |
| 20260509142458 | 21 | 51 | 1.6 | 1.6 | 0.00 | 0.00 | 0.00 | 77 | 1011.3 |
| 20260509141953 | 21 | 69 | 0.0 | 0.0 | 0.00 | 0.00 | 0.00 | 77 | 1011.3 |
| 20260509141450 | 21 | 49 | 1.6 | 1.6 | 0.00 | 0.00 | 0.00 | 78 | 1011.3 |
| 20260509140947 | 21 | 43 | 1.6 | 1.6 | 0.00 | 0.00 | 0.00 | 78 | 1011.4 |
| 20260509140443 | 20 | 72 | 0.0 | 0.0 | 0.00 | 0.00 | 0.00 | 79 | 1011.8 |
| 20260509135942 | 20 | 328 | 3.2 | 3.2 | 0.00 | 0.00 | 0.00 | 80 | 1011.3 |
| 20260509135438 | 19 | 54 | 1.6 | 1.6 | 0.00 | 0.00 | 0.00 | 81 | 1011.5 |
| 20260509134936 | 19 | 51 | 1.6 | 3.2 | 0.00 | 0.00 | 0.00 | 80 | 1011.3 |
| 20260509134433 | 18 | 57 | 0.0 | 1.6 | 0.00 | 0.00 | 0.00 | 83 | 1011.6 |
| 20260509133931 | 18 | 35 | 1.6 | 1.6 | 0.00 | 0.00 | 0.00 | 83 | 1011.6 |
| 20260509133427 | 18 | 33 | 3.2 | 3.2 | 0.00 | 0.00 | 0.00 | 83 | 1011.6 |
| 20260509132925 | 18 | 47 | 1.6 | 3.2 | 0.00 | 0.00 | 0.00 | 83 | 1011.5 |
| 20260509132423 | 18 | 11 | 3.2 | 3.2 | 0.00 | 0.00 | 0.00 | 83 | 1011.7 |
| 20260509131920 | 18 | 45 | 0.0 | 1.6 | 0.00 | 0.00 | 0.00 | 83 | 1011.9 |
| 20260509131417 | 17 | 62 | 0.0 | 0.0 | 0.00 | 0.00 | 0.00 | 83 | 1011.8 |
| 20260509130914 | 17 | 40 | 0.0 | 1.6 | 0.00 | 0.00 | 0.00 | 85 | 1011.5 |
| 20260509130409 | 17 | 68 | 0.0 | 0.0 | 0.00 | 0.00 | 0.00 | 84 | 1011.5 |
| 20260509125906 | 17 | 80 | 1.6 | 3.2 | 0.00 | 0.00 | 0.00 | 85 | 1011.3 |
| 20260509125402 | 17 | 62 | 0.0 | 0.0 | 0.00 | 0.00 | 0.00 | 86 | 1011.3 |
| 20260509124858 | 17 | 70 | 1.6 | 1.6 | 0.00 | 0.00 | 0.00 | 86 | 1011.3 |
| 20260509124356 | 16 | 88 | 1.6 | 3.2 | 0.00 | 0.00 | 0.00 | 86 | 1011.1 |
| 20260509123854 | 16 | 79 | 4.8 | 4.8 | 0.00 | 0.00 | 0.00 | 87 | 1011.0 |
| 20260509123351 | 16 | 76 | 4.8 | 4.8 | 0.00 | 0.00 | 0.00 | 88 | 1011.0 |
| 20260509122846 | 16 | 86 | 0.0 | 1.6 | 0.00 | 0.00 | 0.00 | 88 | 1011.0 |
| 20260509122343 | 16 | 81 | 1.6 | 1.6 | 0.00 | 0.00 | 0.00 | 88 | 1010.7 |
| 20260509121840 | 16 | 71 | 4.8 | 4.8 | 0.00 | 0.00 | 0.00 | 88 | 1010.6 |
| 20260509121337 | 16 | 95 | 1.6 | 1.6 | 0.00 | 0.00 | 0.00 | 89 | 1010.9 |
| 20260509120835 | 16 | 88 | 1.6 | 3.2 | 0.00 | 0.00 | 0.00 | 89 | 1010.6 |
| 20260509120333 | 16 | 77 | 3.2 | 3.2 | 0.00 | 0.00 | 0.00 | 89 | 1010.4 |
| 20260509115831 | 15 | 61 | 6.4 | 8.0 | 0.00 | 0.00 | 0.00 | 90 | 1010.2 |
| 20260509115328 | 16 | 79 | 1.6 | 3.2 | 0.00 | 0.00 | 0.00 | 90 | 1010.0 |
| 20260509114825 | 16 | 72 | 4.8 | 4.8 | 0.00 | 0.00 | 0.00 | 90 | 1009.9 |
| 20260509114324 | 16 | 84 | 1.6 | 1.6 | 0.00 | 0.00 | 0.00 | 90 | 1009.9 |
| 20260509113823 | 16 | 86 | 3.2 | 3.2 | 0.00 | 0.00 | 0.00 | 89 | 1009.6 |
| 20260509113319 | 16 | 80 | 1.6 | 1.6 | 0.00 | 0.00 | 0.00 | 88 | 1009.5 |
| 20260509112816 | 17 | 63 | 0.0 | 0.0 | 0.00 | 0.00 | 0.00 | 87 | 1009.3 |
| 20260509112314 | 17 | 23 | 1.6 | 1.6 | 0.00 | 0.00 | 0.00 | 87 | 1009.4 |
| 20260509111810 | 17 | 346 | 3.2 | 3.2 | 0.00 | 0.00 | 0.00 | 87 | 1009.2 |
| 20260509111307 | 17 | 44 | 1.6 | 1.6 | 0.00 | 0.00 | 0.00 | 87 | 1009.2 |
| 20260509110805 | 17 | 43 | 0.0 | 0.0 | 0.00 | 0.00 | 0.00 | 86 | 1009.0 |
| 20260509110301 | 17 | 25 | 0.0 | 0.0 | 0.00 | 0.00 | 0.00 | 85 | 1009.0 |
| 20260509105759 | 17 | 29 | 1.6 | 1.6 | 0.00 | 0.00 | 0.00 | 85 | 1009.0 |
| 20260509105257 | 17 | 31 | 1.6 | 3.2 | 0.00 | 0.00 | 0.00 | 85 | 1009.0 |
| 20260509104753 | 17 | 48 | 0.0 | 1.6 | 0.00 | 0.00 | 0.00 | 85 | 1009.1 |
| 20260509104250 | 17 | 37 | 0.0 | 1.6 | 0.00 | 0.00 | 0.00 | 86 | 1009.4 |
| 20260509103749 | 17 | 26 | 3.2 | 3.2 | 0.00 | 0.00 | 0.00 | 87 | 1009.5 |
| 20260509103245 | 17 | 53 | 3.2 | 3.2 | 0.00 | 0.00 | 0.00 | 87 | 1009.8 |
| 20260509102744 | 17 | 73 | 1.6 | 1.6 | 0.00 | 0.00 | 0.00 | 87 | 1009.4 |
| 20260509102240 | 17 | 44 | 1.6 | 1.6 | 0.00 | 0.00 | 0.00 | 86 | 1009.4 |
| 20260509101737 | 17 | 154 | 0.0 | 1.6 | 0.00 | 0.00 | 0.00 | 86 | 1009.3 |
| 20260509101233 | 17 | 217 | 4.8 | 4.8 | 0.00 | 0.00 | 0.00 | 85 | 1009.2 |
| 20260509100731 | 17 | 200 | 3.2 | 3.2 | 0.00 | 0.00 | 0.00 | 84 | 1009.3 |
| 20260509100228 | 17 | 166 | 0.0 | 0.0 | 0.00 | 0.00 | 0.00 | 85 | 1009.3 |
| 20260509095724 | 17 | 175 | 0.0 | 0.0 | 0.00 | 0.00 | 0.00 | 85 | 1009.5 |
| 20260509095222 | 17 | 182 | 3.2 | 3.2 | 0.00 | 0.00 | 0.00 | 85 | 1009.4 |
| 20260509094718 | 17 | 209 | 6.4 | 8.0 | 0.00 | 0.00 | 0.00 | 85 | 1009.2 |
| 20260509094215 | 18 | 223 | 14.5 | 16.1 | 0.00 | 0.00 | 0.00 | 83 | 1009.1 |
| 20260509093713 | 18 | 218 | 12.9 | 12.9 | 0.00 | 0.00 | 0.00 | 82 | 1009.1 |
| 20260509093210 | 18 | 239 | 14.5 | 17.7 | 0.00 | 0.00 | 0.00 | 81 | 1008.9 |
| 20260509092708 | 18 | 227 | 12.9 | 12.9 | 0.00 | 0.00 | 0.00 | 80 | 1008.9 |
| 20260509092206 | 18 | 224 | 19.3 | 22.5 | 0.00 | 0.00 | 0.00 | 80 | 1008.9 |
| 20260509091704 | 18 | 218 | 12.9 | 14.5 | 0.00 | 0.00 | 0.00 | 80 | 1008.6 |
| 20260509091200 | 18 | 224 | 16.1 | 17.7 | 0.00 | 0.00 | 0.00 | 82 | 1008.5 |
| 20260509090658 | 18 | 222 | 16.1 | 17.7 | 0.00 | 0.00 | 0.00 | 78 | 1007.9 |
| 20260509090155 | 18 | 203 | 14.5 | 16.1 | 0.00 | 0.00 | 0.00 | 77 | 1007.9 |
| 20260509085652 | 18 | 222 | 14.5 | 14.5 | 0.00 | 0.00 | 0.00 | 78 | 1007.8 |
| 20260509085149 | 19 | 217 | 14.5 | 16.1 | 0.00 | 0.00 | 0.00 | 78 | 1007.6 |
| 20260509084646 | 18 | 216 | 17.7 | 17.7 | 0.00 | 0.00 | 0.00 | 79 | 1007.7 |
| 20260509084143 | 19 | 214 | 17.7 | 22.5 | 0.00 | 0.00 | 0.00 | 81 | 1007.3 |
| 20260509083641 | 20 | 203 | 8.0 | 12.9 | 0.00 | 0.00 | 0.00 | 77 | 1007.0 |
| 20260509083136 | 20 | 277 | 9.7 | 11.3 | 0.00 | 0.00 | 0.00 | 72 | 1006.8 |
| 20260509082634 | 20 | 241 | 11.3 | 12.9 | 0.00 | 0.00 | 0.00 | 72 | 1006.1 |
| 20260509082130 | 19 | 286 | 11.3 | 12.9 | 0.00 | 0.00 | 0.00 | 80 | 1006.0 |
| 20260509081627 | 20 | 231 | 19.3 | 24.1 | 0.00 | 0.00 | 0.00 | 77 | 1005.2 |
| 20260509081125 | 20 | 220 | 24.1 | 25.7 | 0.00 | 0.00 | 0.00 | 69 | 1004.9 |
| 20260509080623 | 18 | 158 | 3.2 | 4.8 | 0.00 | 0.00 | 0.00 | 73 | 1004.9 |
| 20260509080120 | 18 | 147 | 0.0 | 1.6 | 0.00 | 0.00 | 0.00 | 76 | 1005.7 |
| 20260509075618 | 18 | 340 | 8.0 | 9.7 | 0.00 | 0.00 | 0.00 | 76 | 1007.1 |
| 20260509075116 | 18 | 125 | 6.4 | 8.0 | 0.00 | 0.00 | 0.00 | 72 | 1007.0 |
| 20260509074612 | 18 | 143 | 0.0 | 1.6 | 0.00 | 0.00 | 0.00 | 80 | 1008.0 |
| 20260509074108 | 18 | 148 | 0.0 | 1.6 | 0.00 | 0.00 | 0.00 | 79 | 1008.0 |
| 20260509073606 | 18 | 6 | 9.7 | 11.3 | 0.00 | 0.00 | 0.00 | 82 | 1008.2 |
| 20260509073102 | 18 | 111 | 0.0 | 0.0 | 0.00 | 0.00 | 0.00 | 81 | 1008.7 |
| 20260509072558 | 18 | 165 | 9.7 | 12.9 | 0.00 | 0.00 | 0.00 | 79 | 1009.0 |
| 20260509072050 | 18 | 129 | 1.6 | 1.6 | 0.00 | 0.00 | 0.00 | 79 | 1009.9 |